TimeEDT,TemperatureF,Dew PointF,Humidity,Sea Level PressureIn,VisibilityMPH,Wind Direction,Wind SpeedMPH,Gust SpeedMPH,PrecipitationIn,Events,Conditions,WindDirDegrees,DateUTC
12:55 AM,54.7,40.3,58,29.79,10.0,West,8.1,-,N/A,,Clear,270,2012-10-16 04:55:00
1:55 AM,52.5,41.9,67,29.79,10.0,West,6.9,-,N/A,,Scattered Clouds,260,2012-10-16 05:55:00
2:55 AM,53.2,40.5,62,29.79,10.0,West,8.1,17.3,N/A,,Overcast,270,2012-10-16 06:55:00
3:55 AM,52.2,38.1,59,29.80,10.0,West,9.2,17.3,N/A,,Clear,280,2012-10-16 07:55:00
4:55 AM,52.2,37.4,57,29.81,10.0,West,9.2,-,N/A,,Overcast,280,2012-10-16 08:55:00
5:55 AM,52.5,37.6,57,29.83,10.0,Variable,6.9,-,N/A,,Overcast,0,2012-10-16 09:55:00
6:55 AM,51.1,38.3,62,29.84,10.0,West,8.1,-,N/A,,Partly Cloudy,280,2012-10-16 10:55:00
7:55 AM,50.7,37.6,61,29.86,10.0,WNW,10.4,-,N/A,,Clear,290,2012-10-16 11:55:00
8:55 AM,52.3,38.1,58,29.88,10.0,Calm,Calm,-,N/A,,Clear,0,2012-10-16 12:55:00
9:55 AM,53.2,37.9,56,29.89,10.0,West,12.7,23.0,N/A,,Mostly Cloudy,280,2012-10-16 13:55:00
10:55 AM,53.6,37.0,53,29.91,10.0,WNW,8.1,26.5,N/A,,Mostly Cloudy,290,2012-10-16 14:55:00
11:55 AM,54.5,36.7,51,29.90,10.0,West,11.5,18.4,N/A,,Overcast,270,2012-10-16 15:55:00
12:55 PM,56.5,37.0,48,29.90,10.0,NW,10.4,23.0,N/A,,Overcast,310,2012-10-16 16:55:00
1:55 PM,58.8,38.3,47,29.86,10.0,WNW,9.2,-,N/A,,Overcast,300,2012-10-16 17:55:00
2:55 PM,58.1,38.1,47,29.86,10.0,NW,8.1,16.1,N/A,,Partly Cloudy,310,2012-10-16 18:55:00
3:55 PM,59.2,37.9,45,29.85,10.0,West,5.8,17.3,N/A,,Clear,270,2012-10-16 19:55:00
4:55 PM,59.0,37.8,45,29.85,10.0,Variable,5.8,-,N/A,,Clear,0,2012-10-16 20:55:00
5:55 PM,57.6,37.8,48,29.85,10.0,Variable,5.8,-,N/A,,Clear,0,2012-10-16 21:55:00
6:55 PM,53.6,39.2,58,29.88,10.0,West,4.6,-,N/A,,Clear,270,2012-10-16 22:55:00
7:55 PM,48.6,39.7,72,29.89,10.0,Calm,Calm,-,N/A,,Clear,0,2012-10-16 23:55:00
8:55 PM,45.0,39.4,81,29.92,10.0,Calm,Calm,-,N/A,,Clear,0,2012-10-17 00:55:00
9:55 PM,43.7,39.4,85,29.94,10.0,Variable,3.5,-,N/A,,Clear,0,2012-10-17 01:55:00
10:55 PM,45.5,37.6,74,29.94,10.0,Calm,Calm,-,N/A,,Clear,0,2012-10-17 02:55:00
11:55 PM,42.8,37.9,83,29.94,10.0,Calm,Calm,-,N/A,,Clear,0,2012-10-17 03:55:00